Regional Weather Roundup
Issued by NWS

Home | Current Version | Previous Version | Text Only | Print | Product List | Glossary Off
Versions: 1 2 3 4 5 6 7 8 9 10 11 12 13 14 15 16 17 18 19 20 21 22 23 24 25 26 27 28 29 30 31 32 33 34 35 36 37 38 39 40 41 42 43 44 45 46 47 48

000
ASUS45 KBOI 040410
RWRID
WEATHER ROUNDUP FOR IDAHO
NATIONAL WEATHER SERVICE BOISE ID
1000 PM MDT SUN MAY 03 2015

NOTE: "FAIR" INDICATES FEW OR NO CLOUDS BELOW 12000 FEET
WITH NO SIGNIFICANT WEATHER AND/OR OBSTRUCTIONS TO VISIBILITY

IDZ012-014-040500-
SOUTHWEST IDAHO


CITY           SKY/WX    TMP DP  RH WIND       PRES   REMARKS
BOISE          CLEAR     67  28  23 CALM      29.80R
CALDWELL       CLEAR     68  28  22 CALM      29.81R
MOUNTAIN HOME  CLEAR     66  27  23 W2        29.81R
$$

IDZ016-017-040500-
SOUTHCENTRAL IDAHO


CITY           SKY/WX    TMP DP  RH WIND       PRES   REMARKS
BURLEY         CLOUDY    62  40  44 S15       29.87R
JEROME         PTCLDY    63  40  42 S15       29.89R
TWIN FALLS     MOCLDY    62  41  46 S21G30    29.88R
$$

IDZ019>023-040500-
SOUTHEAST IDAHO


CITY           SKY/WX    TMP DP  RH WIND       PRES   REMARKS
IDAHO FALLS    MOCLDY    54  46  74 E12       29.95R
POCATELLO      CLEAR     57  41  55 E10       29.91R
REXBURG        MOCLDY    54  42  64 S9        29.96R
$$

IDZ006-010-011-018-031-032-040500-
CENTRAL IDAHO MOUNTAINS


CITY           SKY/WX    TMP DP  RH WIND       PRES   REMARKS
MCCALL         CLEAR     53  25  33 N8        29.90R
HAILEY         PTCLDY    54  37  54 CALM      29.93R
STANLEY          N/A     43  26  51 S6        29.98R
SALMON         PTCLDY    54  36  50 CALM      29.87R
CHALLIS        MOCLDY    58  30  34 NW7       29.90R
$$

IDZ002-004-006-007-026-040500-
NORTHERN IDAHO


CITY           SKY/WX    TMP DP  RH WIND       PRES   REMARKS
LEWISTON       CLEAR     63  28  26 S5        29.84R
LOWELL           N/A     52  41  66 CALM      29.87R
COEUR D`ALENE  CLEAR     52  28  40 CALM      29.90R
MULLAN PASS    CLEAR     48  15  26 N3        29.98R
$$



USA.gov is the U.S. government's official web portal to all federal, state and local government web resources and services.